Location: Newark
(13.8625°N, 100.5144°E)
Time: 09:19:20
(UTC+00:00)

ISS - Visible Passes

Search period start: 08 April 2020 00:00
Search period end: 18 April 2020 00:00
Orbit: 418 x 423 km, 51.6° (Epoch: 08 April)

Date Brightness Start Highest point End Pass type
(mag) Time Alt. Az. Time Alt. Az. Time Alt. Az.
09 Apr -2.4 13:03:10 10° NNW 13:05:14 34° NNW 13:05:14 34° NNW visible
10 Apr -2.8 12:16:23 10° NNW 12:19:22 30° NE 12:20:44 22° E visible
11 Apr -1.5 13:06:21 10° WNW 13:08:51 20° SW 13:09:22 19° SW visible
12 Apr -2.7 12:18:34 10° NW 12:21:46 43° SW 12:24:58 10° SSE visible
